FW2418 Weather Reports


time (UTC)temp
F
wind
direction
speed
knots
gust
knots
rain 1hr
in
rain 24hr
in
rain mn
in
humidity
%
barometer
mb
20260504031410 66 37 0.0 0.9 0.00 0.05 0.01 82 1015.3
20260504030409 66 36 0.9 0.9 0.00 0.05 0.01 82 1015.3
20260504025408 66 50 0.0 0.9 0.00 0.06 0.01 81 1015.3
20260504024408 66 32 0.9 2.6 0.00 0.06 0.01 80 1015.3
20260504023407 66 28 0.9 3.5 0.00 0.06 0.01 80 1015.3
20260504022406 67 68 0.0 2.6 0.00 0.06 0.01 79 1015.3
20260504021405 67 356 0.9 2.6 0.00 0.07 0.01 79 1015.3
20260504020302 67 16 1.7 3.5 0.00 0.07 0.01 78 1015.0
20260504015301 67 54 0.9 3.5 0.00 0.07 0.01 78 1015.0
20260504014259 67 13 0.9 4.3 0.00 0.07 0.01 77 1015.0
20260504013258 67 39 0.9 3.5 0.00 0.07 0.01 77 1015.0
20260504012257 68 13 0.9 3.5 0.00 0.07 0.01 76 1015.0
20260504011256 68 20 0.9 3.5 0.00 0.07 0.01 75 1014.6
20260504010256 68 19 0.9 3.5 0.00 0.07 0.01 75 1014.6
20260504005255 68 20 1.7 4.3 0.00 0.07 0.01 75 1014.6
20260504004254 69 22 1.7 4.3 0.00 0.07 0.01 74 1015.0
20260504003253 69 56 0.9 3.5 0.00 0.07 0.01 73 1014.6
20260504002221 70 23 0.9 3.5 0.00 0.07 0.01 72 1014.6
20260504001149 70 36 0.9 4.3 0.00 0.07 0.01 72 1014.3
20260504000117 70 19 0.9 4.3 0.00 0.07 0.01 71 1014.3
20260503235116 71 12 0.9 4.3 0.00 0.07 0.01 70 1014.3
20260503234115 71 22 1.7 6.1 0.00 0.07 0.01 69 1014.3
20260503233114 71 75 1.7 7.0 0.00 0.07 0.01 68 1014.3
20260503231940 72 17 1.7 6.1 0.00 0.07 0.01 68 1014.3
20260503230908 72 69 1.7 6.1 0.00 0.07 0.01 68 1014.3
20260503225907 73 31 2.6 7.0 0.00 0.07 0.01 66 1014.3
20260503224906 73 23 2.6 7.0 0.00 0.07 0.01 66 1014.3
20260503223905 73 54 1.7 6.1 0.00 0.07 0.01 66 1014.3
20260503222904 73 24 2.6 6.1 0.00 0.07 0.01 65 1014.3
20260503221904 74 75 0.9 7.0 0.00 0.07 0.01 64 1014.3
20260503220903 74 47 0.9 6.1 0.00 0.07 0.01 63 1014.0
20260503215902 75 47 3.5 7.0 0.00 0.07 0.01 62 1014.0
20260503214901 75 60 1.7 6.1 0.00 0.07 0.01 60 1014.0
20260503213829 75 82 1.7 5.2 0.00 0.07 0.01 61 1013.6
20260503212828 76 20 2.6 5.2 0.00 0.07 0.01 58 1014.0
20260503211828 76 48 1.7 6.1 0.00 0.07 0.01 59 1014.0
20260503210827 76 76 2.6 7.0 0.00 0.07 0.01 58 1014.0
20260503205826 76 53 2.6 7.0 0.00 0.07 0.01 57 1014.0
20260503204825 76 53 2.6 7.8 0.00 0.07 0.01 57 1014.0
20260503203824 76 56 1.7 7.8 0.00 0.08 0.01 58 1014.0
20260503202823 75 45 1.7 7.8 0.00 0.10 0.01 58 1014.0
20260503201823 76 5 2.6 7.0 0.00 0.12 0.01 57 1014.3
20260503200821 76 49 1.7 7.8 0.00 0.12 0.01 58 1014.0
20260503195820 76 11 3.5 7.0 0.00 0.12 0.01 58 1014.3
20260503194820 77 4 2.6 6.1 0.00 0.13 0.01 58 1014.3
20260503193818 77 27 1.7 7.0 0.00 0.13 0.01 58 1014.6
20260503192817 77 41 2.6 7.8 0.00 0.13 0.01 58 1014.6
20260503191816 77 17 2.6 7.8 0.00 0.15 0.01 57 1015.0
20260503190815 78 86 1.7 6.1 0.00 0.19 0.01 57 1015.3
20260503185814 77 48 3.5 7.0 0.00 0.26 0.01 58 1015.0
20260503184813 76 359 1.7 8.7 0.00 0.26 0.01 60 1015.3
20260503183812 76 7 2.6 9.6 0.00 0.26 0.01 60 1015.3
20260503182812 77 33 2.6 6.1 0.00 0.26 0.01 58 1015.3
20260503181810 77 59 1.7 6.1 0.00 0.26 0.01 57 1015.3
20260503180809 77 27 2.6 7.8 0.00 0.26 0.01 59 1015.7
20260503175808 78 40 3.5 8.7 0.00 0.26 0.01 57 1015.7
20260503174808 76 22 2.6 8.7 0.00 0.26 0.01 59 1015.7
20260503173735 76 16 3.5 7.8 0.00 0.26 0.01 59 1015.7
20260503172734 75 38 2.6 9.6 0.00 0.26 0.01 63 1016.0
20260503171702 75 43 4.3 11.3 0.00 0.26 0.01 63 1016.0
20260503170701 75 14 4.3 10.4 0.00 0.26 0.01 65 1016.0
20260503150517 72 19 5.2 14.8 0.00 0.26 0.01 74 1016.0
20260503131333 67 32 1.7 8.7 0.00 0.26 0.01 89 1015.0
20260503130332 65 22 2.6 7.0 0.00 0.26 0.01 91 1015.3
20260503110148 61 45 0.9 3.5 0.00 0.26 0.01 96 1013.9
20260503100111 62 304 0.9 1.7 0.00 0.26 0.01 97 1013.6
20260503080958 62 33 0.9 2.6 0.00 0.26 0.01 97 1012.6
20260503072923 63 327 0.0 0.9 0.00 0.26 0.01 97 1012.6
20260503071922 63 319 0.0 1.7 0.00 0.26 0.01 97 1012.6
20260503070849 63 351 0.9 2.6 0.00 0.26 0.01 97 1012.6
20260503054708 64 315 0.0 0.9 0.00 0.25 0.00 97 1013.0
20260503053636 64 13 0.0 0.0 0.00 0.25 0.00 97 1013.0
20260503052635 64 315 0.0 0.0 0.00 0.25 0.00 97 1013.0
20260503051603 64 315 0.0 0.9 0.00 0.25 0.00 97 1013.0
20260503050602 64 315 0.0 1.7 0.00 0.25 0.00 97 1013.0
20260503045601 64 316 0.0 1.7 0.00 0.25 0.00 97 1012.6
20260503044600 64 27 0.9 2.6 0.01 0.25 0.00 97 1012.6
20260503043559 64 294 0.0 3.5 0.02 0.25 0.00 97 1012.3
20260503042527 64 358 0.0 7.8 0.02 0.25 0.00 97 1012.0
20260503041526 64 5 0.9 8.7 0.04 0.25 0.00 97 1012.0
20260503040525 65 17 2.6 8.7 0.04 0.25 0.00 97 1012.0
20260503035453 65 17 2.6 6.1 0.05 0.25 0.25 97 1012.0
20260503034452 66 356 1.7 3.5 0.04 0.24 0.24 97 1011.6
20260503033451 66 339 1.7 5.2 0.03 0.23 0.23 97 1011.6
20260503032450 67 358 1.7 4.3 0.03 0.23 0.23 97 1011.3